Preview of NWS' New Version of Forecast
This preview is not operational and should not be used for support decisions.

Regional Weather Roundup (RWR)

Issued by National Weather Service (NWS)

                            
000
ASUS42 KTBW 221416
RWRFL 
FLORIDA REGIONAL WEATHER ROUNDUP
NATIONAL WEATHER SERVICE TAMPA BAY RUSKIN FL
1000 AM EDT WED MAY 22 2019

NOTE: "FAIR" INDICATES FEW OR NO CLOUDS BELOW 12,000 FEET WITH NO
SIGNIFICANT WEATHER AND/OR OBSTRUCTIONS TO VISIBILITY.

FLZ001>010-012>015-112-114-115-221500-
PANHANDLE FLORIDA
  
CITY           SKY/WX    TMP DP  RH WIND       PRES   REMARKS
PENSACOLA      PTSUNNY   83  73  72 SE12      30.05R                  
PENSACOLA NAS  PTSUNNY   82  73  74 SE10      30.04R                  
MILTON NAS     FAIR      79  72  79 SE7       30.06R                  
CRESTVIEW      FAIR      80  69  69 VRB6      30.08R                  
DUKE FIELD     FAIR      77  77 100 SE6       30.06R                  
VALPARAISO     MOSUNNY   81  70  69 SE8       30.06R                  
MARY ESTHER    PTSUNNY   82  71  68 SE8       30.04                   
PANAMA CITY    FAIR      81  69  67 SE5       30.06R                  
TYNDALL AFB    FAIR      82  70  66 E5        30.05S                  
APALACHICOLA   FAIR      83  70  64 SE6       30.06S                  

STATION/POSITION SKY/WX   TEMP    WIND        PRES    WAVE   SWELL
                          AIR SEA DIR/SP/G            HT/PER HT/PER
                          (F)     (DEG/KT/KT) (MB)    (FT/S) (FT/S)
30.1N   87.6W                                   N/A     3/ 5
29.2N   88.2W                     140/ 10/ 14 1016.6R   4/ 6   3/ 6
PANAMA CITY BEAC           79 81  120/  8/  9 1018.4R
TOWER C          NOT AVBL

$$
FLZ011-016>038-118-127-128-134-139-239-221500-
NORTH FLORIDA
  
CITY           SKY/WX    TMP DP  RH WIND       PRES   REMARKS
MARIANNA       FAIR      81  66  60 NE3       30.07R                  
TALLAHASSEE    FAIR      84  65  52 CALM      30.08R                  
PERRY          FAIR      86  71  61 SE5       30.08R                  
LIVE OAK       MOSUNNY   82  72  69 CALM      30.08R                  
CROSS CITY     FAIR      83  74  74 S6        30.08R                  
LAKE CITY      FAIR      79  70  73 SE3       30.10R                  
GAINESVILLE    FAIR      84  71  65 E7        30.11S                  
WILLISTON      FAIR      81  70  69 S6        30.09R                  
PALATKA        FAIR     N/A N/A N/A S6        30.10R                  
MAYPORT NAS    FAIR      83  67  58 SE6       30.10S                  
JACKSONVILLE   FAIR      83  69  62 S5        30.09R                  
JAX NAS        FAIR      81  67  62 S6        30.11R                  
JAX CECIL      SUNNY     84  70  61 SE6       30.10R                  
FERNANDINA BEA FAIR      82  69  63 S8        30.10S                  
ST AUGUSTINE   FAIR      82  68  62 S5        30.11R                  
PALM COAST     SUNNY     81  68  65 SE7       30.10R                  

STATION/POSITION SKY/WX   TEMP    WIND        PRES    WAVE   SWELL
                          AIR SEA DIR/SP/G            HT/PER HT/PER
                          (F)     (DEG/KT/KT) (MB)    (FT/S) (FT/S)
SHELL POINT      NOT AVBL
KEATON BEACH               81     180/  5/  5 1018.4R
CEDAR KEY                  79     150/  7/  8 1018.5R
FERNANDINA                 84 82  160/  5/  8 1020.0R
30.7N   81.3W                 79                N/A     2/ 5
MAYPORT                    80 82  190/  4/  8 1019.7R
31.4N   80.9W              78 78  210/  8/  8 1019.5R   3/ 5   2/ 5
ST AUGUSTINE               77 80  150/  5/  6 1019.7R

$$
FLZ040-043>046-052-053-057-058-063-144-221500-
INTERIOR CENTRAL FLORIDA
  
CITY           SKY/WX    TMP DP  RH WIND       PRES   REMARKS
OCALA          FAIR      82  70  66 SE3       30.09R                  
LEESBURG       FAIR      81  69  67 S7        30.10R                  
SANFORD        FAIR      80  67  64 E6        30.09R                  
ORLANDO EXEC   FAIR      82  65  56 E7        30.09R                  
ORLANDO INTL   FAIR      81  66  60 VRB7      30.09R                  
WINTER HAVEN   FAIR      81  69  67 VRB6      30.10R                  
LAKELAND       SUNNY     81  70  69 SE6       30.09R                  
BARTOW         SUNNY     81  68  65 SE7       30.08R                  
SEBRING        FAIR      82  67  61 SE6       30.09R                  
OKEECHOBEE     FAIR      81  68  65 E3        30.07R                  

$$
FLZ041-047-054-059-064-141-147-221500-
EAST CENTRAL FLORIDA
  
CITY           SKY/WX    TMP DP  RH WIND       PRES   REMARKS
ORMOND BEACH   SUNNY     81  68  65 E6        30.10R                  
DAYTONA BEACH  FAIR      81  69  67 SE3       30.10R                  
DELAND         FAIR      81  68  65 SE6       30.09S                  
NEW SMYRNA BEA SUNNY     82  66  57 SE5       30.11R                  
JFK SPACE CTR  FAIR      81  68  65 E5        30.09R                  
TITUSVILLE     SUNNY     82  66  57 CALM      30.10R                  
CAPE CANAVERAL FAIR      80  56  42 E3        30.08R                  
PATRICK AFB    FAIR      81  69  65 SE6       30.09R                  
MELBOURNE      FAIR      81  67  62 VRB5      30.08R                  
VERO BEACH     FAIR      82  65  56 E5        30.08R                  
FT PIERCE      FAIR      81  64  56 E6        30.08R                  
STUART         MOSUNNY   82  64  54 E9        30.09R                  

STATION/POSITION SKY/WX   TEMP    WIND        PRES    WAVE   SWELL
                          AIR SEA DIR/SP/G            HT/PER HT/PER
                          (F)     (DEG/KT/KT) (MB)    (FT/S) (FT/S)
28.5N   80.2W              79      80/  4/  6 1019.7
28.9N   78.5W              77 79  360/  2/  4 1020.1R   2/ 8   2/ 8
TRIDENT PIER               80 82   70/  5/  7 1020.3R
28.4N   80.5W                 80                N/A     2/ 4
27.5N   80.2W                 79                N/A     2/ 8

$$
FLZ050-056-061-142-242-148-248-149-249-151-251-155-255-
160-260-221500-
WEST CENTRAL FLORIDA
  
CITY           SKY/WX    TMP DP  RH WIND       PRES   REMARKS
CRYSTAL RIVER  FAIR      82  70  65 SE5       30.08R                  
INVERNESS      FAIR      81  73  78 S6        30.09S                  
BROOKSVILLE    FAIR      82  70  66 S7        30.08R                  
CLEARWATER AIR FAIR      81  70  69 CALM      30.06S                  
ST PETE CLEARW   N/A     82  71  69 VRB3      30.06R                  
TAMPA INTL     FAIR      82  69  64 CALM      30.07R                  
TAMPA EXEC     FAIR      81  70  69 CALM      30.08S                  
PLANT CITY     FAIR      82  70  65 SE3       30.10R                  
MACDILL AFB    FAIR      82  71  69 SE6       30.07R                  
PETER O KNIGHT CLOUDY    82  72  69 SE6       30.08R                  
ST PETERSBURG  FAIR      81  72  74 SE6       30.05F                  
SARASOTA       FAIR      83  71  67 SE5       30.04R                  
VENICE         FAIR      84  72  65 E7        30.06R                  

STATION/POSITION SKY/WX   TEMP    WIND        PRES    WAVE   SWELL
                          AIR SEA DIR/SP/G            HT/PER HT/PER
                          (F)     (DEG/KT/KT) (MB)    (FT/S) (FT/S)
27.3N   84.2W                 80                N/A     1/ 6
CLEARWATER BEACH           81 84  160/  5/  6 1018.1R
MIDDLE TAMPA BAY           81     180/  4/  7 1018.0R
VENICE                     81 83  170/  3/  5 1017.5R

$$
FLZ066-069-070-075>078-162-262-165-265-221500-
SOUTHWEST FLORIDA AND KEYS
  
CITY           SKY/WX    TMP DP  RH WIND       PRES   REMARKS
PUNTA GORDA    FAIR      82  68  62 VRB5      30.08R                  
FT MYERS       FAIR      80  69  69 SE7       30.05R                  
SOUTHWEST INTL FAIR      81  69  67 VRB6      30.06R                  
NAPLES         FAIR      82  69  64 SE6       30.04R                  
MARCO ISLAND   FAIR      83  70  64 E8        30.06R                  
IMMOKALEE      FAIR      82  68  61 E6        30.04R                  
MARATHON       FAIR      89  73  59 E8        30.02R HX  97           
KEY WEST NAS   FAIR      87  72  60 E8        30.02R                  
KEY WEST INTL  FAIR      84  73  69 E8        30.02R                  

STATION/POSITION SKY/WX   TEMP    WIND        PRES    WAVE   SWELL
                          AIR SEA DIR/SP/G            HT/PER HT/PER
                          (F)     (DEG/KT/KT) (MB)    (FT/S) (FT/S)
NAPLES                     82 84              1017.4R
DRY TORTUGAS               82     110/ 10/ 11 1016.5R
SAND KEY                   81                 1016.4R
SOMBRERO KEY               82                 1016.1R

$$
FLZ067-068-071>074-168-172>174-221500-
SOUTHEAST FLORIDA 
  
CITY           SKY/WX    TMP DP  RH WIND       PRES   REMARKS
W PALM BEACH   FAIR      83  64  52 NE9       30.07R                  
BOCA RATON     MOSUNNY   86  66  51 NE8       30.06R                  
FT LAUDER-EXEC FAIR      84  62  47 E6        30.05R                  
FT LAUDERDALE  FAIR      83  67  58 NE8       30.04S                  
POMPANO BEACH  FAIR      83  65  54 NE7       30.06R                  
PEMBROKE PINES FAIR      84  64  50 VRB7G16   30.06S                  
OPA LOCKA      FAIR      84  66  54 N7        30.05S                  
MIAMI          FAIR      84  66  54 NE8       30.05R                  
WEST KENDALL   FAIR      83  66  56 NE6       30.05R                  
HOMESTEAD      FAIR      83  69  61 NE8       30.04R                  

STATION/POSITION SKY/WX   TEMP    WIND        PRES    WAVE   SWELL
                          AIR SEA DIR/SP/G            HT/PER HT/PER
                          (F)     (DEG/KT/KT) (MB)    (FT/S) (FT/S)
PORT EVERGLADES            81      50/  8/ 11 1017.8
VIRGINIA KEY               82 84   40/  7/  9 1017.0R
LAKE WORTH                 79 81              1019.1R
SETTLEMENT POINT           79      70/  7/  8 1018.5R

$$